Terug naar catalogus

STARLINK-4545

ActiefCommunicatieVLEO
NORAD 53421·PAYLOAD·🇺🇸 United States

Gelanceerd Aug 10, 2022 vanaf Cape Canaveral Space Force Station

Loading…

Volgende Passages (komende 24 uur)

TLE

VersSource: CelesTrak SupGP

Epoch: Sep 14, 2026, 20:50 UTC

1 53421C 22097AK  26257.86854167 -.00040451  00000+0 -13011-2 0  2572
2 53421  53.1596 333.0545 0001149  74.5485 309.0212 15.31715681    13

Volg STARLINK-4545 in realtime met AllMySat

Download on the App Store